Вернуться в каталог

STARLINK-35907

АктивенСвязьVLEO
NORAD 66498·PAYLOAD·🇺🇸 United States

Запущен Nov 15, 2025 с Cape Canaveral Space Force Station

Loading…

Ближайшие Пролёты (ближайшие 24 часа)

TLE

СвежийSource: CelesTrak SupGP

Эпоха: Sep 14, 2026, 23:11 UTC

1 66498C 25263P   26257.96645833 -.00009291  00000+0 -33647-3 0  2572
2 66498  43.0030   1.9570 0001599 268.8761 107.4794 15.27586361    16

Отслеживайте STARLINK-35907 в реальном времени с AllMySat

Download on the App Store